[[{"header":{"parameterUnit":"m.s-1","parameterCategory":1,"la1":30.2991,"la2":30.254,"lo1":-89.0895,"lo2":-89.0444,"dy":0.0017,"dx":0.0017,"nx":28,"ny":28,"refTime":"2024-10-03T09:00:00:Z","depth":0,"parameterNumber":2,"parameterNumberName":"U-component_of_WINDS"},"data":[0,0,0,0,0,0,0,0,0,0,0,0,0,0,0,0,0,0,0,0,0,0,0,0,0,0,0,0,0,0,0,0,0,0,0,0,0,0,0,0,0,0,0,0,0,0,0,0,0,0,0,0,0,0,0,0,0,0,-3.5121,-3.5121,0,-3.51,-3.51,-3.51,-3.5026,-3.5024,-3.5023,-3.5021,-3.5001,-3.5002,-3.5003,0,0,0,0,0,0,0,0,0,0,0,0,0,-3.51,-3.5101,-3.5121,-3.5121,-3.5121,-3.51,-3.51,-3.5099,-3.5026,-3.5024,-3.5022,-3.502,-3.5,-3.5001,-3.5003,0,0,0,0,0,0,0,0,0,0,0,0,0,-3.5097,-3.5101,-3.5121,-3.5082,-3.5078,-3.51,-3.51,-3.5099,-3.5027,-3.5024,-3.5022,-3.5019,-3.5,-3.5001,-3.5003,-3.5062,0,0,-3.5007,-3.5008,0,0,0,0,0,0,0,0,-3.5097,-3.5098,-3.5088,-3.5084,-3.508,-3.5063,-3.5085,-3.5087,-3.5027,-3.5046,-3.5021,-3.5018,-3.5023,-3.5023,-3.5024,-3.5061,-3.506,-3.5008,-3.5008,-3.5009,-3.501,0,0,0,0,0,0,0,-3.5098,-3.5098,-3.5113,-3.5088,-3.5083,-3.5065,-3.5062,-3.5085,-3.5049,-3.5044,-3.5039,-3.5037,-3.5021,-3.5023,-3.5023,-3.506,-3.5007,-3.5009,-3.501,-3.501,-3.5146,-3.5148,0,0,0,0,0,0,-3.5103,-3.5099,-3.5114,-3.5112,-3.5083,-3.5068,-3.5064,-3.5071,-3.5049,-3.5043,-3.5039,-3.5034,-3.5022,-3.5022,-3.5022,-3.5092,-3.5009,-3.501,-3.5011,-3.5143,-3.5146,-3.5149,0,0,0,0,0,0,-3.5103,-3.5105,-3.5114,-3.5104,-3.5104,-3.5071,-3.5079,-3.5072,-3.5074,-3.5045,-3.5038,-3.5048,-3.502,-3.502,-3.5053,-3.509,-3.5011,-3.5013,-3.514,-3.5144,-3.5148,-3.5231,0,0,0,0,0,0,-3.5103,-3.5106,-3.5127,-3.5105,-3.5105,-3.5145,-3.5081,-3.5073,-3.5077,-3.5069,-3.5051,-3.5046,-3.5018,-3.5051,-3.5055,-3.5091,-3.5014,-3.5137,-3.5142,-3.5147,-3.5224,-3.5237,-3.5248,0,0,0,0,0,-3.5102,-3.5151,-3.5129,-3.5131,-3.5131,-3.5147,-3.5147,-3.5114,-3.508,-3.5102,-3.5083,-3.5047,-3.5085,-3.5055,-3.5058,-3.5096,-3.5134,-3.514,-3.5146,-3.5219,-3.5235,-3.5247,0,0,0,0,0,0,-3.5179,-3.5148,-3.5122,-3.5166,-3.516,-3.5135,-3.5162,-3.513,-3.5134,-3.5127,-3.5085,-3.5082,-3.5121,-3.5111,-3.5078,-3.5152,-3.5104,-3.5111,-3.5158,-3.5172,-3.5184,-3.5186,-3.5015,0,0,0,0,0,-3.5201,-3.5216,-3.5188,-3.5229,-3.5227,-3.5195,-3.5201,-3.5176,-3.5168,-3.5165,-3.5149,-3.5143,-3.5154,-3.5162,-3.517,-3.5222,-3.5218,-3.5249,-3.5261,-3.527,-3.5278,-3.5306,-3.532,-3.5169,-3.5169,-3.5169,0,0,-3.5247,-3.5231,-3.5244,-3.5244,-3.5237,-3.5254,-3.5194,-3.5215,-3.5228,-3.5168,-3.5199,-3.5187,-3.5178,-3.5221,-3.5239,-3.5214,-3.5318,-3.5278,-3.5286,-3.5288,-3.5314,-3.5328,-3.5341,-3.5173,-3.5173,-3.5172,0,0,-3.5339,-3.5328,-3.5362,-3.5356,-3.5345,-3.5324,-3.5332,-3.5312,-3.5302,-3.5331,-3.5288,-3.5303,-3.5322,-3.5318,-3.5318,-3.541,-3.5377,-3.5414,-3.5475,-3.5503,-3.5515,-3.5526,-3.5561,-3.5573,-3.542,-3.5421,-3.5421,0,-3.5398,-3.5422,-3.5384,-3.5408,-3.541,-3.5357,-3.5392,-3.5387,-3.538,-3.5383,-3.5355,-3.5379,-3.5369,-3.5411,-3.5433,-3.5435,-3.5444,-3.5416,-3.5516,-3.5527,-3.5536,-3.5569,-3.5581,-3.5425,-3.5425,-3.5424,-3.5424,0,-3.5495,-3.5513,-3.5542,-3.5537,-3.5542,-3.5571,-3.5538,-3.5548,-3.5522,-3.5504,-3.5535,-3.5521,-3.5527,-3.5534,-3.5509,-3.5573,-3.5558,-3.5524,-3.5474,-3.5556,-3.5586,-3.5598,-3.5432,-3.543,-3.5429,-3.5428,0,0,-3.5637,-3.561,-3.5622,-3.5619,-3.5604,-3.5617,-3.5644,-3.5649,-3.5659,-3.5656,-3.5679,-3.5696,-3.5665,-3.5665,-3.5639,-3.5663,-3.574,-3.5626,-3.5625,-3.5649,-3.5812,-3.584,-3.5855,-3.5717,-3.5719,-3.5721,-3.5814,0,-3.5727,-3.5772,-3.5739,-3.579,-3.5807,-3.5756,-3.578,-3.5774,-3.5757,-3.577,-3.5751,-3.5766,-3.5721,-3.5722,-3.5743,-3.5726,-3.5772,-3.5718,-3.5739,-3.5741,-3.5746,-3.5871,-3.59,-3.5989,-3.5825,-3.5827,-3.5828,0,-3.5838,-3.584,-3.5894,-3.5876,-3.5881,-3.5903,-3.5906,-3.5918,-3.591,-3.5896,-3.5897,-3.5865,-3.5891,-3.5841,-3.5878,-3.5842,-3.5848,-3.5841,-3.5843,-3.5846,-3.5791,-3.5879,-3.6016,-3.603,-3.5846,-3.5845,-3.5843,0,-3.5939,-3.5955,-3.5989,-3.5988,-3.5968,-3.5985,-3.5977,-3.5966,-3.5972,-3.5974,-3.5977,-3.5982,-3.5986,-3.5991,-3.5961,-3.5927,-3.6003,-3.5949,-3.5994,-3.5995,-3.6014,-3.6014,-3.6156,-3.6014,-3.6014,-3.6014,-3.6014,0,-3.6044,-3.608,-3.6035,-3.6056,-3.6094,-3.6055,-3.6094,-3.6081,-3.6072,-3.6091,-3.6047,-3.6065,-3.6023,-3.6038,-3.6014,-3.605,-3.6051,-3.6042,-3.6036,-3.6047,-3.6049,-3.6053,-3.6047,-3.6017,-3.6017,-3.6016,-3.6015,0,-3.6165,-3.6135,-3.617,-3.6148,-3.6143,-3.6172,-3.6153,-3.6173,-3.6153,-3.6177,-3.6181,-3.615,-3.6165,-3.6135,-3.6146,-3.613,-3.6181,-3.6163,-3.6184,-3.618,-3.6227,-3.6224,-3.6379,-3.6398,-3.6242,-3.6243,-3.6244,0,-3.6235,-3.6261,-3.6241,-3.6251,-3.6245,-3.6261,-3.6266,-3.6229,-3.6237,-3.623,-3.625,-3.6261,-3.6269,-3.6295,-3.6274,-3.6283,-3.6267,-3.632,-3.6268,-3.6279,-3.6271,-3.627,-3.6274,-3.6332,-3.6334,-3.6336,-3.6337,0,-3.6364,-3.6348,-3.6358,-3.6363,-3.6371,-3.6373,-3.6372,-3.6382,-3.6342,-3.6353,-3.6368,-3.6374,-3.6385,-3.6397,-3.6401,-3.6393,-3.636,-3.6353,-3.6364,-3.6378,-3.639,-3.6386,-3.6216,-3.635,-3.6349,-3.6348,-3.6347,-3.6347,-3.6462,-3.6484,-3.6474,-3.6487,-3.6482,-3.6482,-3.65,-3.6482,-3.6494,-3.65,-3.6477,-3.6498,-3.6489,-3.6491,-3.6487,-3.6503,-3.6479,-3.6494,-3.6499,-3.6504,-3.6513,-3.6385,-3.6503,-3.6502,-3.6502,-3.6502,-3.6501,0,-3.6591,-3.6582,-3.6594,-3.6594,-3.6605,-3.657,-3.6568,-3.6579,-3.6598,-3.6593,-3.6601,-3.6618,-3.663,-3.661,-3.6619,-3.6636,-3.6621,-3.664,-3.6639,-3.6639,-3.6532,-3.6523,-3.6652,-3.6652,-3.6652,-3.6652,-3.6652,-3.6652,-3.666,-3.6695,-3.6678,-3.6711,-3.6701,-3.6721,-3.6723,-3.6723,-3.6719,-3.6741,-3.6751,-3.6737,-3.6727,-3.6735,-3.6745,-3.6738,-3.6745,-3.677,-3.6759,-3.666,-3.6646,-3.6632,-3.6623,-3.6771,-3.6771,-3.6864,-3.6865,-3.6866]},{"header":{"parameterUnit":"m.s-1","parameterCategory":1,"la1":30.2991,"la2":30.254,"lo1":-89.0895,"lo2":-89.0444,"dy":0.0017,"dx":0.0017,"nx":28,"ny":28,"refTime":"2024-10-03T09:00:00:Z","depth":0,"parameterNumber":3,"parameterNumberName":"V-component_of_WINDS"},"data":[0,0,0,0,0,0,0,0,0,0,0,0,0,0,0,0,0,0,0,0,0,0,0,0,0,0,0,0,0,0,0,0,0,0,0,0,0,0,0,0,0,0,0,0,0,0,0,0,0,0,0,0,0,0,0,0,0,0,-1.0559,-1.056,0,-1.0571,-1.0571,-1.0571,-1.0554,-1.0554,-1.0553,-1.0552,-1.0565,-1.0566,-1.0566,0,0,0,0,0,0,0,0,0,0,0,0,0,-1.0522,-1.0522,-1.0559,-1.056,-1.056,-1.0571,-1.0571,-1.0571,-1.0554,-1.0553,-1.0553,-1.0552,-1.0564,-1.0565,-1.0567,0,0,0,0,0,0,0,0,0,0,0,0,0,-1.0536,-1.0523,-1.0559,-1.0553,-1.0552,-1.0571,-1.0571,-1.0571,-1.0554,-1.0553,-1.0553,-1.0552,-1.0564,-1.0565,-1.0567,-1.0593,0,0,-1.0571,-1.0571,0,0,0,0,0,0,0,0,-1.0535,-1.0538,-1.0553,-1.0553,-1.0552,-1.056,-1.0562,-1.0579,-1.0555,-1.0554,-1.0552,-1.0551,-1.0564,-1.0565,-1.057,-1.0594,-1.0594,-1.0571,-1.0572,-1.0572,-1.0573,0,0,0,0,0,0,0,-1.0534,-1.0537,-1.0564,-1.0554,-1.0553,-1.0549,-1.055,-1.0565,-1.0564,-1.0554,-1.0552,-1.0554,-1.0564,-1.0568,-1.057,-1.0595,-1.0571,-1.0572,-1.0573,-1.0573,-1.064,-1.0641,0,0,0,0,0,0,-1.0534,-1.0536,-1.0564,-1.0564,-1.0541,-1.055,-1.0551,-1.0559,-1.0564,-1.0563,-1.0555,-1.0553,-1.0566,-1.0568,-1.057,-1.0602,-1.0572,-1.0574,-1.0574,-1.064,-1.0641,-1.0642,0,0,0,0,0,0,-1.0533,-1.0537,-1.0563,-1.055,-1.0553,-1.0552,-1.056,-1.0559,-1.0564,-1.0564,-1.0564,-1.056,-1.0566,-1.0568,-1.0587,-1.0602,-1.0574,-1.0575,-1.0638,-1.064,-1.0641,-1.0665,0,0,0,0,0,0,-1.0532,-1.0537,-1.0547,-1.055,-1.0554,-1.0581,-1.0561,-1.056,-1.0566,-1.0564,-1.0569,-1.0569,-1.0565,-1.0586,-1.0589,-1.0603,-1.0576,-1.0637,-1.0639,-1.0641,-1.0663,-1.0667,-1.067,0,0,0,0,0,-1.0531,-1.0554,-1.0548,-1.0551,-1.0567,-1.0582,-1.0584,-1.0579,-1.0568,-1.0578,-1.0578,-1.0569,-1.0599,-1.0588,-1.0591,-1.0606,-1.0636,-1.0638,-1.0641,-1.0661,-1.0666,-1.067,0,0,0,0,0,0,-1.0553,-1.0554,-1.0548,-1.0572,-1.0577,-1.0579,-1.0592,-1.0584,-1.0593,-1.0591,-1.0584,-1.0585,-1.0606,-1.0608,-1.0595,-1.0632,-1.0616,-1.0619,-1.063,-1.0635,-1.0639,-1.0638,-1.0578,0,0,0,0,0,-1.056,-1.0572,-1.0572,-1.0593,-1.0596,-1.0593,-1.06,-1.0595,-1.06,-1.0603,-1.0604,-1.0609,-1.062,-1.0627,-1.0637,-1.0662,-1.0663,-1.0674,-1.0678,-1.0681,-1.0684,-1.0697,-1.0702,-1.0649,-1.0649,-1.0649,0,0,-1.0576,-1.0578,-1.0586,-1.0598,-1.0601,-1.0614,-1.0596,-1.061,-1.0619,-1.0605,-1.0623,-1.0624,-1.0629,-1.0652,-1.0662,-1.0654,-1.0699,-1.0684,-1.0686,-1.0688,-1.07,-1.0705,-1.071,-1.065,-1.065,-1.065,0,0,-1.0611,-1.0614,-1.0632,-1.0635,-1.064,-1.0638,-1.0642,-1.0645,-1.0645,-1.0663,-1.0652,-1.0663,-1.0681,-1.0686,-1.069,-1.0725,-1.0717,-1.0728,-1.0749,-1.0762,-1.0766,-1.077,-1.0783,-1.0787,-1.0731,-1.0731,-1.0731,0,-1.063,-1.0649,-1.0642,-1.0656,-1.0662,-1.0648,-1.0666,-1.067,-1.0678,-1.0682,-1.0673,-1.0695,-1.0698,-1.0721,-1.0729,-1.0733,-1.0738,-1.0729,-1.0766,-1.0769,-1.0773,-1.0785,-1.079,-1.0732,-1.0732,-1.0732,-1.0732,0,-1.0672,-1.0685,-1.0699,-1.0706,-1.0713,-1.0729,-1.0724,-1.0732,-1.0726,-1.0725,-1.0743,-1.0745,-1.0755,-1.076,-1.0755,-1.0782,-1.0777,-1.0767,-1.0751,-1.0779,-1.0791,-1.0796,-1.0734,-1.0734,-1.0733,-1.0733,0,0,-1.0724,-1.0726,-1.0731,-1.0734,-1.0738,-1.0748,-1.0762,-1.0772,-1.0778,-1.0784,-1.0796,-1.0811,-1.0802,-1.0807,-1.0802,-1.0813,-1.0841,-1.0801,-1.0801,-1.0809,-1.0871,-1.088,-1.0885,-1.0835,-1.0835,-1.0836,-1.0871,0,-1.076,-1.0786,-1.0779,-1.0805,-1.0817,-1.0803,-1.0816,-1.082,-1.0818,-1.0828,-1.0826,-1.0837,-1.0823,-1.0826,-1.0836,-1.0835,-1.0853,-1.0832,-1.0847,-1.0848,-1.0848,-1.0891,-1.0901,-1.0934,-1.0875,-1.0876,-1.0877,0,-1.0806,-1.0812,-1.0839,-1.084,-1.0845,-1.0857,-1.0864,-1.0873,-1.0876,-1.0874,-1.0879,-1.0871,-1.0886,-1.0869,-1.0889,-1.0875,-1.088,-1.088,-1.0881,-1.0884,-1.0865,-1.0896,-1.0944,-1.0949,-1.0883,-1.0883,-1.0882,0,-1.0842,-1.0857,-1.0875,-1.0878,-1.0879,-1.0888,-1.0889,-1.0891,-1.0896,-1.0903,-1.0906,-1.0914,-1.0919,-1.0925,-1.0919,-1.0907,-1.094,-1.0922,-1.0939,-1.0939,-1.0948,-1.0948,-1.0999,-1.0949,-1.0949,-1.0949,-1.0949,0,-1.0883,-1.0901,-1.0891,-1.0903,-1.0921,-1.0912,-1.0931,-1.093,-1.0932,-1.0943,-1.0931,-1.0942,-1.0933,-1.0942,-1.0938,-1.0955,-1.0957,-1.0956,-1.0955,-1.0958,-1.0958,-1.0962,-1.096,-1.0951,-1.095,-1.095,-1.095,0,-1.0927,-1.0922,-1.0941,-1.0939,-1.0939,-1.0953,-1.0952,-1.0963,-1.0959,-1.0973,-1.0976,-1.0971,-1.0981,-1.0976,-1.0987,-1.0983,-1.1006,-1.1001,-1.1005,-1.1005,-1.1022,-1.1021,-1.1079,-1.1086,-1.1031,-1.1031,-1.1032,0,-1.0955,-1.0968,-1.0968,-1.0974,-1.0976,-1.0986,-1.0991,-1.0982,-1.0988,-1.0992,-1.1002,-1.1011,-1.1018,-1.1035,-1.1033,-1.1041,-1.1037,-1.1056,-1.1038,-1.104,-1.1038,-1.1038,-1.1039,-1.1061,-1.1061,-1.1062,-1.1062,0,-1.1005,-1.1001,-1.101,-1.1016,-1.1023,-1.1028,-1.1032,-1.1037,-1.1028,-1.1036,-1.1046,-1.1051,-1.1062,-1.1071,-1.1078,-1.1078,-1.1069,-1.1067,-1.1072,-1.1076,-1.1078,-1.1078,-1.1017,-1.1067,-1.1066,-1.1066,-1.1066,-1.1065,-1.1043,-1.1054,-1.1055,-1.1064,-1.1066,-1.1069,-1.1079,-1.1076,-1.1084,-1.1092,-1.1086,-1.1098,-1.11,-1.1107,-1.1109,-1.1118,-1.1111,-1.1117,-1.1119,-1.1121,-1.1124,-1.1075,-1.1119,-1.1119,-1.1119,-1.1119,-1.1119,0,-1.1093,-1.1093,-1.1101,-1.1107,-1.1114,-1.1103,-1.1106,-1.1113,-1.1123,-1.1126,-1.1132,-1.1144,-1.1152,-1.115,-1.1157,-1.1165,-1.1161,-1.1168,-1.1168,-1.1168,-1.113,-1.1126,-1.1171,-1.1171,-1.1171,-1.1171,-1.1171,-1.1171,-1.112,-1.1138,-1.1134,-1.1151,-1.1151,-1.1162,-1.1165,-1.1168,-1.117,-1.1183,-1.119,-1.1188,-1.1188,-1.1195,-1.1202,-1.1201,-1.1205,-1.1214,-1.1211,-1.1176,-1.1171,-1.1166,-1.1162,-1.1214,-1.1214,-1.1249,-1.1249,-1.1249]}]]